Location: Hains Lake
(37.8540°N, 99.8578°W)
Time: 06:53:32
(UTC+00:00)

Vanguard 1 - Pass Details

Date: 20 April 2021
Orbit: 649 x 3834 km, 34.2° (Epoch: 04 May)

Event Time Altitude Azimuth Distance (km) Brightness Sun altitude
Rises 03:43:34 0° 287° (WNW) 7,857 15.7 -25.8°
Reaches altitude 10° 03:49:43 10° 279° (W) 6,932 15.1 -26.8°
Maximum altitude 04:08:26 33° 226° (SW) 4,851 13.5 -29.4°
Enters shadow 04:18:04 22° 186° (S) 4,927 13.2 -30.6°
